AO-07 1 7530U 74089B 26171.32384949 -.00000048 00000-0 -10319-4 0 9994 2 7530 101.9899 184.6033 0012609 124.3014 247.3322 12.53698149360912 AO-27 1 22825U 93061C 26171.42614367 .00000064 00000-0 41444-4 0 9999 2 22825 98.6879 238.8386 0009542 91.4815 268.7461 14.30943014707461 FO-29 1 24278U 96046B 26171.34242250 -.00000016 00000-0 16133-4 0 9993 2 24278 98.5237 19.7822 0350925 88.2682 275.8612 13.53274552473592 ISS 1 25544U 98067A 26171.41461525 .00008813 00000-0 16600-3 0 9991 2 25544 51.6327 284.1189 0004557 208.5194 151.5545 15.49333088572250 SO-50 1 27607U 02058C 26171.45947406 .00000719 00000-0 10244-3 0 9994 2 27607 64.5513 118.8607 0075194 261.8620 97.3951 14.83052787264944 AO-73 1 39444U 13066AE 26171.43726984 .00004737 00000-0 29523-3 0 9995 2 39444 97.8276 142.9507 0035961 189.5491 170.5058 15.09520967680154 IO-86 1 40931U 15052B 25151.18580175 .00001241 00000-0 78118-4 0 9996 2 40931 6.0006 24.0987 0012733 338.8432 21.1169 14.78805930523159 CAS-2T 1 41847U 16066G 26171.21882669 .00001296 00000-0 18865-3 0 9991 2 41847 98.3821 246.9206 0342870 120.3110 243.2471 14.44702954505236 AO-91 1 43017U 17073E 26171.18457471 .00006691 00000-0 29340-3 0 9990 2 43017 97.4696 38.3374 0149318 318.7924 40.2110 15.12753215465843 PO-101 1 43678U 18084H 26172.17112333 .00001865 00000-0 15313-3 0 9994 2 43678 98.1193 8.5521 0012811 157.4667 202.7120 15.00467135416817 QO-100 1 43700U 18090A 26171.32582803 .00000139 00000-0 00000+0 0 9992 2 43700 0.0162 58.1464 0001829 66.6264 286.8419 1.00272471 27701 JO-97 1 43803U 18099AX 26171.42320771 .00014139 00000-0 43536-3 0 9990 2 43803 97.4124 234.2689 0004531 246.7819 113.2947 15.33738605414121 RS-44 1 44909U 19096E 26171.44517356 .00000024 00000-0 45367-4 0 9998 2 44909 82.5221 337.5395 0218289 136.5763 225.2766 12.79748893302760 CSS 1 48274U 21035A 26171.43213816 .00020661 00000-0 24268-3 0 9991 2 48274 41.4693 302.2526 0007384 105.8714 254.2939 15.60937952293670 HO-113 1 50466U 21131B 26172.21975847 .00000356 00000-0 12371-3 0 9991 2 50466 98.4981 264.5877 0005387 87.7970 272.3836 14.41360419235691 MO-122 1 60209U 24125G 26171.05066676 .00049535 00000-0 53419-3 0 9995 2 60209 97.2284 28.5983 0009832 192.9282 167.1727 15.63472773110010 AO-123 1 61781U 24199AY 26171.42296523 .00006434 00000-0 18716-3 0 9991 2 61781 97.2995 40.0642 0012089 300.9779 59.0277 15.35714948134428 TEVEL2-4 1 63213U 25052D 26171.44236345 .00016057 00000-0 47906-3 0 9995 2 63213 97.3895 67.8392 0004959 96.9497 263.2310 15.34707854 70619 TEVEL2-5 1 63214U 25052E 26171.26760575 .00015978 00000-0 47945-3 0 9997 2 63214 97.3892 67.6107 0004895 98.9294 261.2503 15.34527610 70583 TEVEL2-6 1 63215U 25052F 26171.28000723 .00015976 00000-0 47994-3 0 9994 2 63215 97.3898 67.6078 0004759 99.4633 260.7149 15.34492782 70580 TEVEL2-1 1 63217U 25052H 26171.17964496 .00015594 00000-0 47659-3 0 9994 2 63217 97.3873 67.1285 0004873 107.5627 252.6148 15.33952529 70556 TEVEL2-3 1 63218U 25052J 26171.43510259 .00015215 00000-0 46415-3 0 9997 2 63218 97.3872 67.4058 0004851 107.4306 252.7467 15.34015837 70598 TEVEL2-2 1 63219U 25052K 26171.44087273 .00015148 00000-0 46281-3 0 9990 2 63219 97.3872 67.3917 0004899 108.0209 252.1568 15.33968526 70590 TEVEL2-9 1 63237U 25052AD 26171.42250345 .00013890 00000-0 45158-3 0 9994 2 63237 97.3932 66.7416 0008057 121.8629 238.3398 15.31981442 70523 TEVEL2-7 1 63238U 25052AE 26171.20271571 .00013367 00000-0 43885-3 0 9999 2 63238 97.3934 66.4373 0008076 122.8867 237.3153 15.31676701 70483 TEVEL2-8 1 63239U 25052AF 26170.68834909 .00012538 00000-0 41221-3 0 9992 2 63239 97.3937 65.9009 0008075 124.5955 235.6049 15.31647647 70407 SO-125 1 63492U 25052BN 26141.26653985 .06534464 24594-5 20838-2 0 9990 2 63492 97.3646 46.2798 0012126 212.7126 147.3417 16.26141574 66567 Lobachevsky 1 67284U 25313AN 26171.18605807 .00004033 00000-0 17476-3 0 9991 2 67284 97.3918 245.8276 0010236 357.9207 2.1986 15.22914821 26419 QMR-KWT-2 1 67291U 25313AV 26170.70536872 .00011199 00000-0 43324-3 0 9993 2 67291 97.3925 245.8896 0007987 353.2594 6.8536 15.26346044 26377 NO-44 1 26931U 01043C 26171.44204659 .00000049 00000-0 49145-4 0 9990 2 26931 67.0502 235.8536 0006064 264.6719 95.3691 14.31957058290913 IO-117 1 53106U 22080B 25167.32760529 -.00000003 00000-0 00000-0 0 9996 2 53106 70.1560 65.9804 0008358 24.6429 335.4629 6.42557409 68669 UmKA-1 1 57172U 23091G 26171.38369249 .00005161 00000-0 23636-3 0 9994 2 57172 97.5046 230.0688 0014343 107.7929 252.4872 15.20848788164497 Monitor-3 1 57180U 23091Q 26171.40744497 .00008680 00000-0 32073-3 0 9992 2 57180 97.5078 234.8773 0013041 90.9319 269.3415 15.27895465164781 Monitor-4 1 57182U 23091S 26171.45181046 .00008870 00000-0 32683-3 0 9992 2 57182 97.5073 234.8934 0013052 91.1607 269.1128 15.27982067164797 VIZARD-meteo 1 57189U 23091Z 26171.46992765 .00014554 00000-0 41535-3 0 9990 2 57189 97.5086 241.0213 0008064 68.0251 292.1849 15.36113853165193 SONATE-2 1 59112U 24043Q 26171.41218347 .00036201 00000-0 46629-3 0 9990 2 59112 97.5542 322.0062 0007216 184.8807 175.2380 15.58929844128393 GRBBeta 1 60237U 24128C 26171.40570095 .00002226 00000-0 16133-3 0 9991 2 60237 61.9881 204.9739 0040241 135.3081 225.1267 15.06654606106752 ArcticSat-1 1 61762U 24199AD 26165.34303744 .14484756 25559-5 25151-3 0 9992 2 61762 97.2729 49.6147 0010303 244.1546 115.8695 16.47295417137679 LASARsat 1 62391U 24247Q 26171.27059198 .00028493 00000-0 56523-3 0 9998 2 62391 44.9733 244.8864 0007836 348.4451 11.6258 15.46534749 83790 CroCube 1 62394U 24247T 26170.49048578 .00032668 00000-0 60622-3 0 9998 2 62394 44.9701 246.5654 0007741 349.0739 10.9982 15.48397693 83709 GALAPAGOS-UTE-SWSU 1 67279U 25313AH 26170.76963954 .00005505 00000-0 23753-3 0 9998 2 67279 97.3919 245.3392 0013679 1.4198 358.7075 15.22856840 26349 SAKHACUBE-CHOLBON 1 67290U 25313AU 26170.45696629 .00007736 00000-0 31324-3 0 9990 2 67290 97.3931 245.4637 0008608 357.2855 2.8334 15.24922033 26320 KNACKSAT-2 1 67683U 98067XZ 26170.59247606 .00040473 00000-0 49084-3 0 9991 2 67683 51.6307 282.3774 0008935 225.7617 134.2643 15.60167582 20659 TEN-KOH2 1 88780U 25241B 26071.31019830 .00010367 00000+0 45580-3 0 9997 2 88780 51.6301 60.3795 0004576 163.6979 196.4146 15.22421637 141